| time (UTC) | temp F | wind direction | speed knots | gust knots | rain 1hr in | rain 24hr in | rain mn in | humidity % | barometer mb |
| 20260510224538 | 83 | 0 | 0.0 | 2.6 | 0.00 | 0.00 | 0.00 | 46 | 1015.9 |
| 20260510223043 | 84 | 89 | 0.9 | 3.5 | 0.00 | 0.00 | 0.00 | 43 | 1015.9 |
| 20260510221542 | 84 | 0 | 0.0 | 4.3 | 0.00 | 0.00 | 0.00 | 41 | 1015.9 |
| 20260510220041 | 83 | 68 | 1.7 | 3.5 | 0.00 | 0.00 | 0.00 | 41 | 1015.8 |
| 20260510214546 | 83 | 51 | 0.9 | 4.3 | 0.00 | 0.00 | 0.00 | 41 | 1015.9 |
| 20260510213047 | 84 | 37 | 0.9 | 3.5 | 0.00 | 0.00 | 0.00 | 41 | 1015.9 |
| 20260510211544 | 83 | 95 | 1.7 | 6.1 | 0.00 | 0.00 | 0.00 | 40 | 1016.0 |
| 20260510210039 | 83 | 61 | 1.7 | 4.3 | 0.00 | 0.00 | 0.00 | 40 | 1016.2 |
| 20260510204540 | 83 | 37 | 2.6 | 7.8 | 0.00 | 0.00 | 0.00 | 40 | 1016.1 |
| 20260510203040 | 83 | 323 | 1.7 | 7.0 | 0.00 | 0.00 | 0.00 | 40 | 1016.2 |
| 20260510201538 | 83 | 3 | 2.6 | 6.1 | 0.00 | 0.00 | 0.00 | 39 | 1016.3 |
| 20260510200041 | 83 | 29 | 0.9 | 4.3 | 0.00 | 0.00 | 0.00 | 39 | 1016.5 |
| 20260510194538 | 83 | 113 | 0.0 | 7.0 | 0.00 | 0.00 | 0.00 | 37 | 1016.6 |
| 20260510193040 | 83 | 58 | 0.9 | 5.2 | 0.00 | 0.00 | 0.00 | 37 | 1016.6 |
| 20260510191539 | 83 | 58 | 2.6 | 7.8 | 0.00 | 0.00 | 0.00 | 37 | 1016.6 |
| 20260510190037 | 83 | 115 | 1.7 | 6.1 | 0.00 | 0.00 | 0.00 | 38 | 1016.6 |
| 20260510184545 | 82 | 108 | 1.7 | 5.2 | 0.00 | 0.00 | 0.00 | 43 | 1016.7 |
| 20260510183040 | 84 | 126 | 0.9 | 4.3 | 0.00 | 0.00 | 0.00 | 40 | 1016.6 |
| 20260510181600 | 82 | 39 | 0.0 | 7.0 | 0.00 | 0.00 | 0.00 | 43 | 1016.9 |
| 20260510180058 | 82 | 66 | 2.6 | 6.1 | 0.00 | 0.00 | 0.00 | 44 | 1016.9 |
| 20260510174538 | 82 | 85 | 0.9 | 5.2 | 0.00 | 0.00 | 0.00 | 47 | 1017.0 |
| 20260510173042 | 81 | 29 | 1.7 | 6.1 | 0.00 | 0.00 | 0.00 | 42 | 1017.2 |
| 20260510171547 | 80 | 52 | 2.6 | 7.0 | 0.00 | 0.00 | 0.00 | 48 | 1017.4 |
| 20260510170039 | 81 | 132 | 0.9 | 4.3 | 0.00 | 0.00 | 0.00 | 49 | 1017.6 |
| 20260510164536 | 80 | 46 | 3.5 | 7.0 | 0.00 | 0.00 | 0.00 | 48 | 1017.3 |
| 20260510163046 | 79 | 15 | 2.6 | 7.0 | 0.00 | 0.00 | 0.00 | 51 | 1017.3 |
| 20260510161545 | 79 | 48 | 0.9 | 7.8 | 0.00 | 0.00 | 0.00 | 55 | 1017.2 |
| 20260510160044 | 77 | 133 | 2.6 | 6.1 | 0.00 | 0.00 | 0.00 | 59 | 1017.3 |
| 20260510154539 | 77 | 47 | 0.9 | 4.3 | 0.00 | 0.00 | 0.00 | 60 | 1017.2 |
| 20260510153040 | 76 | 39 | 4.3 | 8.7 | 0.00 | 0.00 | 0.00 | 62 | 1017.0 |
| 20260510151542 | 76 | 44 | 1.7 | 7.0 | 0.00 | 0.00 | 0.00 | 66 | 1016.9 |
| 20260510150113 | 74 | 39 | 0.0 | 5.2 | 0.00 | 0.00 | 0.00 | 71 | 1017.0 |
| 20260510144540 | 72 | 25 | 3.5 | 6.1 | 0.00 | 0.00 | 0.00 | 74 | 1017.0 |
| 20260510143040 | 71 | 34 | 1.7 | 4.3 | 0.00 | 0.00 | 0.00 | 78 | 1017.0 |
| 20260510141537 | 70 | 39 | 1.7 | 5.2 | 0.00 | 0.00 | 0.00 | 82 | 1017.0 |
| 20260510140038 | 68 | 46 | 1.7 | 5.2 | 0.00 | 0.00 | 0.00 | 86 | 1017.0 |
| 20260510134539 | 66 | 34 | 0.9 | 5.2 | 0.00 | 0.00 | 0.00 | 89 | 1017.0 |
| 20260510133042 | 64 | 34 | 1.7 | 7.8 | 0.00 | 0.00 | 0.00 | 92 | 1016.9 |
| 20260510131536 | 63 | 34 | 4.3 | 7.8 | 0.00 | 0.00 | 0.00 | 95 | 1016.8 |
| 20260510130040 | 61 | 0 | 2.6 | 5.2 | 0.00 | 0.00 | 0.00 | 98 | 1016.9 |
| 20260510124547 | 59 | 43 | 1.7 | 3.5 | 0.00 | 0.00 | 0.00 | 99 | 1016.7 |
| 20260510123043 | 57 | 51 | 0.0 | 0.9 | 0.00 | 0.00 | 0.00 | 99 | 1016.7 |
| 20260510121539 | 55 | 0 | 0.0 | 0.9 | 0.00 | 0.00 | 0.00 | 98 | 1016.5 |
| 20260510120039 | 54 | 0 | 0.0 | 0.9 | 0.00 | 0.00 | 0.00 | 98 | 1016.4 |
| 20260510114547 | 52 | 0 | 0.0 | 0.9 | 0.00 | 0.00 | 0.00 | 96 | 1015.9 |
| 20260510113038 | 51 | 0 | 0.0 | 0.0 | 0.00 | 0.00 | 0.00 | 96 | 1015.7 |
| 20260510111539 | 51 | 0 | 0.0 | 0.9 | 0.00 | 0.00 | 0.00 | 96 | 1015.5 |
| 20260510110045 | 51 | 0 | 0.0 | 0.0 | 0.00 | 0.00 | 0.00 | 96 | 1015.1 |
| 20260510104539 | 51 | 0 | 0.0 | 0.0 | 0.00 | 0.00 | 0.00 | 96 | 1014.9 |
| 20260510103043 | 51 | 0 | 0.0 | 0.9 | 0.00 | 0.00 | 0.00 | 96 | 1014.6 |
| 20260510101538 | 51 | 0 | 0.0 | 0.0 | 0.00 | 0.00 | 0.00 | 96 | 1014.6 |
| 20260510100040 | 51 | 0 | 0.0 | 0.0 | 0.00 | 0.00 | 0.00 | 95 | 1014.6 |
| 20260510094545 | 51 | 0 | 0.0 | 0.0 | 0.00 | 0.00 | 0.00 | 95 | 1014.7 |
| 20260510093039 | 51 | 0 | 0.0 | 0.9 | 0.00 | 0.00 | 0.00 | 95 | 1014.4 |
| 20260510091542 | 51 | 0 | 0.0 | 0.0 | 0.00 | 0.00 | 0.00 | 95 | 1014.3 |
| 20260510090038 | 52 | 0 | 0.0 | 0.0 | 0.00 | 0.00 | 0.00 | 95 | 1014.2 |
| 20260510084539 | 52 | 0 | 0.0 | 0.9 | 0.00 | 0.00 | 0.00 | 94 | 1014.2 |
| 20260510083052 | 52 | 0 | 0.0 | 0.0 | 0.00 | 0.00 | 0.00 | 94 | 1014.2 |
| 20260510081542 | 52 | 0 | 0.0 | 0.0 | 0.00 | 0.00 | 0.00 | 94 | 1014.3 |
| 20260510080039 | 52 | 0 | 0.0 | 0.9 | 0.00 | 0.00 | 0.00 | 93 | 1014.2 |
| 20260510074541 | 52 | 0 | 0.0 | 0.9 | 0.00 | 0.00 | 0.00 | 94 | 1014.1 |
| 20260510073053 | 52 | 0 | 0.0 | 0.9 | 0.00 | 0.00 | 0.00 | 94 | 1013.6 |
| 20260510071543 | 52 | 0 | 0.0 | 0.9 | 0.00 | 0.00 | 0.00 | 94 | 1013.7 |
| 20260510070042 | 52 | 0 | 0.0 | 1.7 | 0.00 | 0.00 | 0.00 | 94 | 1013.6 |
| 20260510064540 | 52 | 0 | 0.0 | 0.0 | 0.00 | 0.00 | 0.00 | 94 | 1013.5 |
| 20260510063040 | 52 | 0 | 0.0 | 0.0 | 0.00 | 0.00 | 0.00 | 94 | 1013.6 |
| 20260510061539 | 53 | 0 | 0.0 | 0.0 | 0.00 | 0.00 | 0.00 | 94 | 1013.5 |
| 20260510060044 | 53 | 0 | 0.0 | 0.0 | 0.00 | 0.00 | 0.00 | 94 | 1013.6 |
| 20260510054540 | 53 | 0 | 0.0 | 0.0 | 0.00 | 0.00 | 0.00 | 93 | 1013.5 |
| 20260510053038 | 53 | 0 | 0.0 | 0.0 | 0.00 | 0.00 | 0.00 | 93 | 1013.6 |
| 20260510051543 | 54 | 52 | 0.0 | 0.9 | 0.00 | 0.00 | 0.00 | 93 | 1013.6 |
| 20260510050041 | 54 | 0 | 0.0 | 0.9 | 0.00 | 0.00 | 0.00 | 92 | 1013.6 |
| 20260510044544 | 54 | 0 | 0.0 | 0.0 | 0.00 | 0.00 | 0.00 | 92 | 1013.5 |
| 20260510043039 | 54 | 0 | 0.0 | 0.0 | 0.00 | 0.00 | 0.00 | 91 | 1013.5 |
| 20260510041542 | 55 | 0 | 0.0 | 0.9 | 0.00 | 0.00 | 0.00 | 90 | 1013.5 |
| 20260510040038 | 56 | 0 | 0.0 | 0.0 | 0.00 | 0.00 | 0.00 | 89 | 1013.5 |
| 20260510034543 | 56 | 0 | 0.0 | 0.9 | 0.00 | 0.00 | 0.00 | 89 | 1013.4 |
| 20260510033039 | 57 | 0 | 0.0 | 0.9 | 0.00 | 0.00 | 0.00 | 87 | 1013.5 |
| 20260510031538 | 57 | 0 | 0.0 | 0.9 | 0.00 | 0.00 | 0.00 | 86 | 1013.4 |
| 20260510030049 | 58 | 0 | 0.0 | 0.9 | 0.00 | 0.00 | 0.00 | 85 | 1013.1 |
| 20260510024542 | 59 | 0 | 0.0 | 0.9 | 0.00 | 0.00 | 0.00 | 84 | 1013.1 |
| 20260510023039 | 60 | 0 | 0.0 | 0.9 | 0.00 | 0.00 | 0.00 | 82 | 1013.0 |
| 20260510021539 | 60 | 0 | 0.0 | 0.9 | 0.00 | 0.00 | 0.00 | 80 | 1012.7 |
| 20260510020038 | 61 | 0 | 0.0 | 0.9 | 0.00 | 0.00 | 0.00 | 79 | 1012.5 |
| 20260510014545 | 62 | 0 | 0.0 | 0.9 | 0.00 | 0.00 | 0.00 | 76 | 1012.5 |
| 20260510013041 | 64 | 52 | 0.0 | 0.9 | 0.00 | 0.00 | 0.00 | 73 | 1012.2 |
| 20260510011546 | 65 | 52 | 0.0 | 0.9 | 0.00 | 0.00 | 0.00 | 70 | 1012.1 |
| 20260510010043 | 67 | 0 | 0.0 | 0.9 | 0.00 | 0.00 | 0.00 | 67 | 1011.9 |
| 20260510004547 | 69 | 0 | 0.0 | 0.9 | 0.00 | 0.00 | 0.00 | 65 | 1011.8 |
| 20260510003042 | 71 | 0 | 0.0 | 0.0 | 0.00 | 0.00 | 0.00 | 61 | 1011.5 |
| 20260510001541 | 73 | 0 | 0.0 | 0.9 | 0.00 | 0.00 | 0.00 | 58 | 1011.5 |
| 20260510000037 | 75 | 0 | 0.0 | 0.9 | 0.00 | 0.00 | 0.00 | 53 | 1011.5 |
| 20260509234542 | 77 | 0 | 0.0 | 1.7 | 0.00 | 0.00 | 0.00 | 48 | 1011.4 |
| 20260509233044 | 78 | 41 | 1.7 | 4.3 | 0.00 | 0.00 | 0.00 | 44 | 1011.3 |
| 20260509231543 | 79 | 49 | 0.9 | 3.5 | 0.00 | 0.00 | 0.00 | 42 | 1011.2 |
| 20260509230050 | 79 | 40 | 0.0 | 2.6 | 0.00 | 0.00 | 0.00 | 43 | 1011.1 |